Aérodrome :
LOGIN :

S'inscrire | Disclaimer

   EN    FR    IT 

 










Légende :    VFR   VFR Marginal   IFR   IFR Intensif   IFR Très Intensif
Visi : 
Plafond : 
>= 8 km
>= 3000ft
5 à 8 km
1000 à 3000 ft
1500m à 5 km
500 à 1000 ft
800 à 1500m
200 à 500 ft
< 800m
< 200 ft
Symboles :   Orages  Brouillard  Fortes neiges  Fortes précipitations  Vent > 20 kt
SIGMETs :   Divers  Orages  Givrage  Turbulence  Onde Orograph.  Cendres Volcan.






- Altitude de l'aérodrome : 340 ft
- Code IATA : BZI


LTBF - Balikesir

DERNIER METAR :
  • 220050Z 36003KT 9999 SCT035 03/00 Q1034 NOSIG

METARs EXPIRÉS :
  • 212350Z 01005KT 9999 BKN035 03/00 Q1034 NOSIG
  • 212250Z 35006KT 9999 BKN035 03/M00 Q1035 NOSIG

TAF TAF LTBF
Valide du 22 à 00h jusqu'au 22 à 09h UTC


212240Z 2200/2209 01008KT 9999 SCT035



MET'MAP, la Météo Aéronautique d'un coup d'oeil ! - Copyright ORBIFLY Décembre 2007 - Disclaimer

ORBIFLY MET'MAP TEAM :

Programmation & Développement : Alexandra Zaïnal
Sur une idée originale de : Baudouin d'Aumeries
Assistance à la programmation : Marc-Olivier Méhu
Soutien technique & logistique : Manuel Goepfert

Contact : metmap@orbifly.com




SOURCES & CREDITS :

   NOAA